Dewpoint
32 50 55 57 59 61 61 61 61 61 61 60 60 61 61 62 61 61 61 61 61 63 62 61 60 59 57 55 55 55 55 54
30 45 56 58 60 60 59 60 60 59 59 59 59 59 60 61 61 62 61 61 61 61 61 59 59 58 56 55 55 55 54 55
32 48 56 58 59 59 59 59 59 59 59 58 58 59 60 60 61 61 62 60 61 61 58 59 58 57 57 55 55 54 54 55
32 49 55 57 58 59 58 58 59 59 59 59 59 59 60 60 60 59 59 60 61 59 58 58 57 57 55 55 55 55 53 54
30 47 53 56 58 59 58 58 58 58 60 58 57 56 56 58 60 60 59 59 58 58 57 57 55 56 55 54 53 54 55 53
34 46 51 55 58 58 57 57 58 58 58 57 57 57 57 59 59 59 59 59 58 57 57 55 55 55 56 55 54 54 55 55
42 49 53 55 57 57 56 56 56 57 57 57 57 57 56 57 58 58 58 59 58 58 57 56 55 55 55 55 55 55 55 55
48 52 53 55 56 55 55 56 55 56 57 56 56 57 57 56 57 57 58 58 58 57 57 56 56 55 56 56 56 55 56 56
44 51 53 54 55 55 56 57 55 55 56 55 55 56 56 56 57 57 57 58 58 58 58 57 56 56 56 56 56 56 57 57
46 48 54 55 55 55 56 55 54 55 55 55 55 56 56 55 57 57 57 58 58 58 58 58 57 55 55 55 56 56 56 56
47 49 54 55 54 55 55 55 54 55 55 55 55 56 56 56 56 56 57 57 58 58 58 57 57 57 55 54 53 55 56 56
52 53 53 55 54 55 55 55 54 54 54 55 55 55 55 55 55 56 56 57 57 57 57 58 57 56 55 56 55 55 55 56
50 53 53 54 54 54 54 55 54 54 54 54 55 55 55 54 55 55 56 55 56 56 56 56 57 57 57 56 55 56 55 55
44 45 51 53 54 54 54 54 53 53 54 55 55 55 55 54 55 55 55 55 55 55 55 55 55 56 56 56 57 56 56 56
39 41 42 44 46 48 50 52 55 55 54 54 54 54 55 55 55 56 55 55 55 55 55 55 55 55 55 56 56 56 56 55
36 37 37 39 40 42 44 45 47 51 48 48 48 49 54 55 55 56 56 56 54 54 55 55 55 55 54 55 55 55 55 55
34 34 34 34 35 37 38 39 40 41 41 41 42 43 44 46 47 47 50 50 49 55 54 54 54 49 36 37 44 55 55 55
33 33 33 31 31 32 34 34 35 35 36 37 38 39 40 41 41 42 43 42 41 41 40 43 38 36 35 36 36 46 51 53
32 32 32 31 30 30 31 32 33 33 33 33 34 36 37 38 37 38 37 36 35 35 35 35 35 33 34 35 36 42 47 38
Lifted_Index
2 0 -2 -3 -3 -3 -3 -3 -2 -0 0 0 1 0 0 1 1 2 2 2 1 1 1 1 1 1 1 2 2 3 3 3
3 1 -2 -3 -3 -3 -3 -3 -2 -0 -0 0 1 1 1 1 1 2 2 2 2 1 1 1 1 1 1 2 2 3 3 3
3 1 -1 -3 -3 -3 -3 -3 -1 -0 0 1 1 1 1 1 1 2 2 2 2 2 2 1 1 1 2 2 2 3 3 3
3 1 -1 -3 -3 -3 -3 -2 -1 -0 0 1 1 1 1 1 2 2 2 2 2 2 2 2 2 2 2 2 3 3 3 3
3 1 -1 -2 -3 -3 -3 -2 -1 -0 0 1 1 1 1 2 2 2 2 2 2 2 2 2 2 2 2 2 2 3 3 4
2 1 -1 -2 -2 -2 -2 -1 -1 -0 0 1 1 1 2 2 2 2 2 2 2 2 2 2 2 2 3 3 3 3 3 4
1 0 -1 -2 -2 -2 -1 -1 -1 -0 0 1 1 2 2 2 1 1 2 2 3 3 2 2 2 3 4 4 4 4 4 4
0 -1 -1 -1 -1 -1 -1 -1 -1 -1 0 1 2 2 2 2 1 2 2 2 3 3 3 3 3 4 5 5 5 5 4 4
-0 -1 -1 -1 -1 -1 -1 -1 -1 -1 0 1 2 2 2 2 2 2 2 3 3 3 3 3 4 4 5 5 5 5 5 4
0 -0 -1 -1 -1 -1 -1 -1 -1 -0 1 2 2 2 2 2 2 2 3 3 3 3 3 3 3 4 5 5 5 5 5 5
0 -0 -1 -1 -1 -1 -1 -1 -1 -0 1 2 2 2 2 3 3 3 3 3 3 3 2 2 3 3 4 5 5 5 5 4
-1 -1 -1 -1 -1 -1 -1 -1 -1 0 1 2 2 2 2 2 3 3 3 3 3 3 2 2 3 3 3 3 4 4 4 4
-1 -1 -1 -1 -1 -2 -2 -1 -1 0 1 2 2 2 2 2 2 2 2 2 2 2 2 2 2 2 2 3 3 3 3 3
-1 -0 -0 -1 -2 -2 -2 -1 -0 0 1 1 2 2 2 2 2 2 2 2 2 2 2 2 2 2 2 2 2 2 2 2
-0 -0 -0 -1 -2 -2 -2 -1 -0 0 0 1 1 1 1 1 1 2 2 2 2 2 2 2 2 2 2 2 2 2 2 2
-0 -0 -1 -1 -1 -2 -1 -1 -0 -0 -0 0 0 0 0 0 1 1 1 1 1 1 1 2 2 2 2 2 2 2 2 2
0 -0 -0 -0 -1 -1 -1 -1 -0 -0 0 0 0 0 0 0 0 1 1 1 1 1 1 1 2 2 2 2 2 2 2 2
2 2 1 1 1 0 0 0 0 0 1 1 1 1 1 1 1 1 1 1 1 1 1 2 2 2 1 1 1 1 1 1
4 3 3 2 2 1 1 1 1 1 1 1 1 2 2 2 2 1 1 1 1 1 1 2 2 2 1 1 1 1 1 1